Year,Month,Day,Hour,Minute,Value (Times are PST for temperature in C)
2008,02,11,10,37,6.20
2008,02,11,10,38,6.20
2008,02,11,10,39,6.20
2008,02,11,10,40,6.20
2008,02,11,10,41,6.20
2008,02,11,10,42,6.20
2008,02,11,10,43,6.20
2008,02,11,10,44,6.20
2008,02,11,10,45,6.20
2008,02,11,10,46,6.20
2008,02,11,10,47,6.20
2008,02,11,10,48,6.20
2008,02,11,10,49,6.20
2008,02,11,10,50,6.20
2008,02,11,10,51,6.20
2008,02,11,10,52,6.20
2008,02,11,10,53,6.20
2008,02,11,10,54,6.20
2008,02,11,10,55,6.20
2008,02,11,10,56,6.20
2008,02,11,10,57,6.20
2008,02,11,10,58,6.30
2008,02,11,10,59,6.30
2008,02,11,11,00,6.30
2008,02,11,11,01,6.30
2008,02,11,11,02,6.30
2008,02,11,11,03,6.30
2008,02,11,11,04,6.30
2008,02,11,11,05,6.30
2008,02,11,11,06,6.30
2008,02,11,11,07,6.20
2008,02,11,11,08,6.20
2008,02,11,11,09,6.20
2008,02,11,11,10,6.20
2008,02,11,11,11,6.20
2008,02,11,11,12,6.20
2008,02,11,11,13,6.20
2008,02,11,11,14,6.20
2008,02,11,11,15,6.20
2008,02,11,11,16,6.20
2008,02,11,11,17,6.20
2008,02,11,11,18,6.20
2008,02,11,11,19,6.20
2008,02,11,11,20,6.20
2008,02,11,11,21,6.20
2008,02,11,11,22,6.20
2008,02,11,11,23,6.20
2008,02,11,11,24,6.20
2008,02,11,11,25,6.20
2008,02,11,11,26,6.20
2008,02,11,11,27,6.20
2008,02,11,11,28,6.30
2008,02,11,11,29,6.30
2008,02,11,11,30,6.30
2008,02,11,11,31,6.30
2008,02,11,11,32,6.30
2008,02,11,11,33,6.30
2008,02,11,11,34,6.30
2008,02,11,11,35,6.40
2008,02,11,11,36,6.40
2008,02,11,11,37,6.40
2008,02,11,11,38,6.40
2008,02,11,11,39,6.40
2008,02,11,11,40,6.40
2008,02,11,11,41,6.40
2008,02,11,11,42,6.50
2008,02,11,11,43,6.50
2008,02,11,11,44,6.60
2008,02,11,11,45,6.60
2008,02,11,11,46,6.60
2008,02,11,11,47,6.60
2008,02,11,11,48,6.60
2008,02,11,11,49,6.60
2008,02,11,11,50,6.70
2008,02,11,11,51,6.70
2008,02,11,12,02,7.00
2008,02,11,12,03,6.90
2008,02,11,12,04,6.80
2008,02,11,12,05,6.90
2008,02,11,12,06,6.90
2008,02,11,12,07,7.00
2008,02,11,12,08,7.00
2008,02,11,12,09,7.00
2008,02,11,12,10,7.00
2008,02,11,12,11,6.90
2008,02,11,12,12,6.90
2008,02,11,12,13,7.00
2008,02,11,12,14,6.90
2008,02,11,12,15,6.90
2008,02,11,12,16,7.00
2008,02,11,12,17,7.00
2008,02,11,12,18,7.00
2008,02,11,12,19,7.00
2008,02,11,12,20,7.00
2008,02,11,12,21,6.90
2008,02,11,12,22,6.90
2008,02,11,12,23,7.00
2008,02,11,12,24,7.00
2008,02,11,12,25,7.00
2008,02,11,12,26,6.90
2008,02,11,12,27,6.90
2008,02,11,12,28,6.90
2008,02,11,12,29,7.00
2008,02,11,12,30,7.00
2008,02,11,12,31,7.00
2008,02,11,12,32,7.00
2008,02,11,12,33,7.00
2008,02,11,12,34,7.00
2008,02,11,12,35,7.00
2008,02,11,12,36,7.00
2008,02,11,12,37,7.00
2008,02,11,12,38,7.00
2008,02,11,12,39,7.00
2008,02,11,12,40,7.00
2008,02,11,12,41,7.00
2008,02,11,12,42,7.00
2008,02,11,12,43,7.10
2008,02,11,12,44,7.10
2008,02,11,12,45,7.10
2008,02,11,12,46,7.10
2008,02,11,12,47,7.10
2008,02,11,12,48,7.00
2008,02,11,12,49,7.00
2008,02,11,12,50,7.00
2008,02,11,12,51,7.00
2008,02,11,12,52,6.90
2008,02,11,12,53,6.90
2008,02,11,12,54,6.90
2008,02,11,12,55,6.90
2008,02,11,12,56,6.90
2008,02,11,12,57,6.90
2008,02,11,12,58,6.90
2008,02,11,12,59,7.00
2008,02,11,13,00,7.00
2008,02,11,13,01,7.00
2008,02,11,13,02,7.00
2008,02,11,13,03,6.90
2008,02,11,13,04,6.90
2008,02,11,13,05,6.90
2008,02,11,13,06,6.80
2008,02,11,13,07,6.80
2008,02,11,13,08,6.80
2008,02,11,13,09,6.70
2008,02,11,13,10,6.70
2008,02,11,13,11,6.70
2008,02,11,13,12,6.70
2008,02,11,13,13,6.70
2008,02,11,13,14,6.70
2008,02,11,13,15,6.70
2008,02,11,13,16,6.70
2008,02,11,13,17,6.70
2008,02,11,13,18,6.70
2008,02,11,13,19,6.70
2008,02,11,13,20,6.80
2008,02,11,13,21,6.80
2008,02,11,13,22,6.80
2008,02,11,13,23,6.80
2008,02,11,13,24,6.80
2008,02,11,13,25,6.80
2008,02,11,13,26,6.80
2008,02,11,13,27,6.80
2008,02,11,13,28,6.80
2008,02,11,13,29,6.80
2008,02,11,13,30,6.80
2008,02,11,13,31,6.80
2008,02,11,13,32,6.80
2008,02,11,13,33,6.80
2008,02,11,13,34,6.70
2008,02,11,13,35,6.70
2008,02,11,13,36,6.70
2008,02,11,13,37,6.70
2008,02,11,13,38,6.70
2008,02,11,13,39,6.70
2008,02,11,13,40,6.80
2008,02,11,13,41,6.80
2008,02,11,13,42,6.70
2008,02,11,13,43,6.70
2008,02,11,13,44,6.70
2008,02,11,13,45,6.70
2008,02,11,13,46,6.70
2008,02,11,13,47,6.70
2008,02,11,13,48,6.70
2008,02,11,13,49,6.70
2008,02,11,13,50,6.60
2008,02,11,13,51,6.60
2008,02,11,13,52,6.60
2008,02,11,13,53,6.60
2008,02,11,13,54,6.60
2008,02,11,13,55,6.40
2008,02,11,13,56,6.50
2008,02,11,13,57,6.60
2008,02,11,13,58,6.60
2008,02,11,13,59,6.60
2008,02,11,14,00,6.60
2008,02,11,14,01,6.60
2008,02,11,14,02,6.60
2008,02,11,14,03,6.60
2008,02,11,14,04,6.60
2008,02,11,14,05,6.60
2008,02,11,14,06,6.60
2008,02,11,14,07,6.60
2008,02,11,14,08,6.60
2008,02,11,14,09,6.70
2008,02,11,14,10,6.70
2008,02,11,14,11,6.70
2008,02,11,14,12,6.70
2008,02,11,14,13,6.70
2008,02,11,14,14,6.70
2008,02,11,14,15,6.80
2008,02,11,14,16,6.80
2008,02,11,14,17,6.80
2008,02,11,14,18,6.80
2008,02,11,14,19,6.80
2008,02,11,14,20,6.80
2008,02,11,14,21,6.80
2008,02,11,14,22,6.80
2008,02,11,14,23,6.90
2008,02,11,14,24,6.90
2008,02,11,14,25,6.90
2008,02,11,14,26,6.90
2008,02,11,14,27,6.90
2008,02,11,14,28,7.00
2008,02,11,14,29,7.00
2008,02,11,14,30,7.00
2008,02,11,14,31,7.00
2008,02,11,14,32,7.00
2008,02,11,14,33,7.10
2008,02,11,14,34,7.10
2008,02,11,14,35,7.00
2008,02,11,14,36,7.00
2008,02,11,14,37,7.00
2008,02,11,14,38,7.00
2008,02,11,14,39,7.00
2008,02,11,14,40,7.00
2008,02,11,14,41,7.00
2008,02,11,14,42,7.00
2008,02,11,14,43,7.00
2008,02,11,14,44,7.00
2008,02,11,14,45,7.00
2008,02,11,14,46,7.00
2008,02,11,14,47,7.00
2008,02,11,14,48,7.10
2008,02,11,14,49,7.10
2008,02,11,14,50,7.10
2008,02,11,14,51,7.10
2008,02,11,14,52,7.10
2008,02,11,14,53,7.10
2008,02,11,14,54,7.00
2008,02,11,14,55,7.00
2008,02,11,14,56,7.10
2008,02,11,14,57,7.10
2008,02,11,14,58,7.10
2008,02,11,14,59,7.10
2008,02,11,15,00,7.10
2008,02,11,15,01,7.10
2008,02,11,15,02,7.10
2008,02,11,15,03,7.10
2008,02,11,15,04,7.10
2008,02,11,15,05,7.10
2008,02,11,15,06,7.10
2008,02,11,15,07,7.10
2008,02,11,15,08,7.10
2008,02,11,15,09,7.10
2008,02,11,15,10,7.20
2008,02,11,15,11,7.20
2008,02,11,15,12,7.20
2008,02,11,15,13,7.20
2008,02,11,15,14,7.20
2008,02,11,15,15,7.30
2008,02,11,15,16,7.30
2008,02,11,15,17,7.30
2008,02,11,15,18,7.30
2008,02,11,15,19,7.30
2008,02,11,15,20,7.30
2008,02,11,15,21,7.30
2008,02,11,15,22,7.30
2008,02,11,15,23,7.30
2008,02,11,15,24,7.30
2008,02,11,15,25,7.30
2008,02,11,15,26,7.30
2008,02,11,15,27,7.30
2008,02,11,15,28,7.40
2008,02,11,15,29,7.40
2008,02,11,15,30,7.40
2008,02,11,15,31,7.40
2008,02,11,15,32,7.40
2008,02,11,15,33,7.40
2008,02,11,15,34,7.40
2008,02,11,15,35,7.40
2008,02,11,15,36,7.40
2008,02,11,15,37,7.40
2008,02,11,15,38,7.40
2008,02,11,15,39,7.40
2008,02,11,15,40,7.40
2008,02,11,15,41,7.40
2008,02,11,15,42,7.40
2008,02,11,15,43,7.40
2008,02,11,15,44,7.40
2008,02,11,15,45,7.40
2008,02,11,15,46,7.40
2008,02,11,15,47,7.40
2008,02,11,15,48,7.40
2008,02,11,15,49,7.40
2008,02,11,15,50,7.40
2008,02,11,15,51,7.40
2008,02,11,15,52,7.40
2008,02,11,15,53,7.40
2008,02,11,15,54,7.40
2008,02,11,15,55,7.40
2008,02,11,15,56,7.40
2008,02,11,15,57,7.40
2008,02,11,15,58,7.40
2008,02,11,15,59,7.40
2008,02,11,16,00,7.40
2008,02,11,16,01,7.40
2008,02,11,16,02,7.40
2008,02,11,16,03,7.40
2008,02,11,16,04,7.40
2008,02,11,16,05,7.40
2008,02,11,16,06,7.30
2008,02,11,16,07,7.30
2008,02,11,16,08,7.30
2008,02,11,16,09,7.30
2008,02,11,16,10,7.30
2008,02,11,16,11,7.30
2008,02,11,16,12,7.30
2008,02,11,16,13,7.30
2008,02,11,16,14,7.30
2008,02,11,16,15,7.30
2008,02,11,16,16,7.30
2008,02,11,16,17,7.30
2008,02,11,16,18,7.30
2008,02,11,16,19,7.30
2008,02,11,16,20,7.30
2008,02,11,16,21,7.30
2008,02,11,16,22,7.30
2008,02,11,16,23,7.30
2008,02,11,16,24,7.30
2008,02,11,16,25,7.30
2008,02,11,16,26,7.30
2008,02,11,16,27,7.30
2008,02,11,16,28,7.30
2008,02,11,16,29,7.30
2008,02,11,16,30,7.40
2008,02,11,16,31,7.40
2008,02,11,16,32,7.40
2008,02,11,16,33,7.40
2008,02,11,16,34,7.40
2008,02,11,16,35,7.40
2008,02,11,16,36,7.40
2008,02,11,16,37,7.40
2008,02,11,16,38,7.40
2008,02,11,16,39,7.40
2008,02,11,16,40,7.40
2008,02,11,16,41,7.40
2008,02,11,16,42,7.40
2008,02,11,16,43,7.40
2008,02,11,16,44,7.40
2008,02,11,16,45,7.40
2008,02,11,16,46,7.40
2008,02,11,16,47,7.40
2008,02,11,16,48,7.40
2008,02,11,16,49,7.40
2008,02,11,16,50,7.40
2008,02,11,16,51,7.40
2008,02,11,16,52,7.40
2008,02,11,16,53,7.40
2008,02,11,16,54,7.40
2008,02,11,16,55,7.40
2008,02,11,16,56,7.40
2008,02,11,16,57,7.40
2008,02,11,16,58,7.40
2008,02,11,16,59,7.40
2008,02,11,17,00,7.40
2008,02,11,17,01,7.40
2008,02,11,17,02,7.40
2008,02,11,17,03,7.40
2008,02,11,17,04,7.40
2008,02,11,17,05,7.40
2008,02,11,17,06,7.40
2008,02,11,17,07,7.40
2008,02,11,17,08,7.40
2008,02,11,17,09,7.40
2008,02,11,17,10,7.40
2008,02,11,17,11,7.30
2008,02,11,17,12,7.30
2008,02,11,17,13,7.30
2008,02,11,17,14,7.30
2008,02,11,17,15,7.30
2008,02,11,17,16,7.30
2008,02,11,17,17,7.30
2008,02,11,17,18,7.30
2008,02,11,17,19,7.30
2008,02,11,17,20,7.30
2008,02,11,17,21,7.30
2008,02,11,17,22,7.30
2008,02,11,17,23,7.30
2008,02,11,17,24,7.30
2008,02,11,17,25,7.30
2008,02,11,17,26,7.30
2008,02,11,17,27,7.30
2008,02,11,17,28,7.30
2008,02,11,17,29,7.30
2008,02,11,17,30,7.30
2008,02,11,17,31,7.30
2008,02,11,17,32,7.30
2008,02,11,17,33,7.30
2008,02,11,17,34,7.30
2008,02,11,17,35,7.30
2008,02,11,17,36,7.30
2008,02,11,17,37,7.30
2008,02,11,17,38,7.30
2008,02,11,17,39,7.30
2008,02,11,17,40,7.30
2008,02,11,17,41,7.30
2008,02,11,17,42,7.30
2008,02,11,17,43,7.30
2008,02,11,17,44,7.30
2008,02,11,17,45,7.20
2008,02,11,17,46,7.20
2008,02,11,17,47,7.20
2008,02,11,17,48,7.20
2008,02,11,17,49,7.20
2008,02,11,17,50,7.20
2008,02,11,17,51,7.20
2008,02,11,17,52,7.10
2008,02,11,17,53,7.10
2008,02,11,17,54,7.10
2008,02,11,17,55,7.10
2008,02,11,17,56,7.10
2008,02,11,17,57,7.20
2008,02,11,17,58,7.20
2008,02,11,17,59,7.20
2008,02,11,18,00,7.20
2008,02,11,18,01,7.20
2008,02,11,18,02,7.20
2008,02,11,18,03,7.20
2008,02,11,18,04,7.20
2008,02,11,18,05,7.20
2008,02,11,18,06,7.20
2008,02,11,18,07,7.10
2008,02,11,18,08,7.10
2008,02,11,18,09,7.10
2008,02,11,18,10,7.10
2008,02,11,18,11,7.10
2008,02,11,18,12,7.10
2008,02,11,18,13,7.10
2008,02,11,18,14,7.10
2008,02,11,18,15,7.00
2008,02,11,18,16,7.10
2008,02,11,18,17,7.00
2008,02,11,18,18,7.10
2008,02,11,18,19,7.10
2008,02,11,18,20,7.10
2008,02,11,18,21,7.00
2008,02,11,18,22,7.00
2008,02,11,18,23,7.00
2008,02,11,18,24,7.00
2008,02,11,18,25,7.00
2008,02,11,18,26,7.00
2008,02,11,18,27,7.00
2008,02,11,18,28,7.00
2008,02,11,18,29,7.00
2008,02,11,18,30,7.00
2008,02,11,18,31,7.00
2008,02,11,18,32,7.00
2008,02,11,18,33,6.90
2008,02,11,18,34,6.90
2008,02,11,18,35,6.90
2008,02,11,18,36,6.90
2008,02,11,18,37,6.90
2008,02,11,18,38,6.90
2008,02,11,18,39,6.90
2008,02,11,18,40,6.90
2008,02,11,18,41,6.90
2008,02,11,18,42,6.90
2008,02,11,18,43,6.90
2008,02,11,18,44,6.90
2008,02,11,18,45,6.90
2008,02,11,18,46,6.90
2008,02,11,18,47,6.90
2008,02,11,18,48,6.90
2008,02,11,18,49,6.90
2008,02,11,18,50,6.90
2008,02,11,18,51,6.90
2008,02,11,18,52,6.90
2008,02,11,18,53,6.90
2008,02,11,18,54,6.90
2008,02,11,18,55,6.90
2008,02,11,18,56,6.90
2008,02,11,18,57,6.90
2008,02,11,18,58,6.90
2008,02,11,18,59,6.90
2008,02,11,19,00,6.90
2008,02,11,19,01,6.90
2008,02,11,19,02,6.90
2008,02,11,19,03,6.90
2008,02,11,19,04,7.00
2008,02,11,19,05,7.00
2008,02,11,19,06,7.00
2008,02,11,19,07,7.00
2008,02,11,19,08,7.00
2008,02,11,19,09,7.00
2008,02,11,19,10,7.00
2008,02,11,19,11,7.00
2008,02,11,19,12,7.00
2008,02,11,19,13,7.00
2008,02,11,19,14,7.00
2008,02,11,19,15,7.00
2008,02,11,19,16,7.00
2008,02,11,19,17,7.00
2008,02,11,19,18,7.00
2008,02,11,19,19,7.00
2008,02,11,19,20,7.00
2008,02,11,19,21,7.00
2008,02,11,19,22,7.00
2008,02,11,19,23,7.00
2008,02,11,19,24,7.10
2008,02,11,19,25,7.10
2008,02,11,19,26,7.10
2008,02,11,19,27,7.10
2008,02,11,19,28,7.10
2008,02,11,19,29,7.10
2008,02,11,19,30,7.10
2008,02,11,19,31,7.10
2008,02,11,19,32,7.10
2008,02,11,19,33,7.10
2008,02,11,19,34,7.10
2008,02,11,19,35,7.10
2008,02,11,19,36,7.10
2008,02,11,19,37,7.10
2008,02,11,19,38,7.10
2008,02,11,19,39,7.10
2008,02,11,19,40,7.10
2008,02,11,19,41,7.10
2008,02,11,19,42,7.10
2008,02,11,19,43,7.10
2008,02,11,19,44,7.10
2008,02,11,19,45,7.10
2008,02,11,19,46,7.10
2008,02,11,19,47,7.10
2008,02,11,19,48,7.00
2008,02,11,19,49,7.00
2008,02,11,19,50,7.00
2008,02,11,19,51,7.00
2008,02,11,19,52,7.00
2008,02,11,19,53,7.00
2008,02,11,19,54,7.00
2008,02,11,19,55,7.00
2008,02,11,19,56,7.00
2008,02,11,19,57,7.00
2008,02,11,19,58,7.00
2008,02,11,19,59,7.00
2008,02,11,20,00,7.00
2008,02,11,20,01,7.00
2008,02,11,20,02,7.00
2008,02,11,20,03,7.00
2008,02,11,20,04,7.00
2008,02,11,20,05,7.00
2008,02,11,20,06,7.00
2008,02,11,20,07,7.00
2008,02,11,20,08,7.00
2008,02,11,20,09,7.00
2008,02,11,20,10,7.00
2008,02,11,20,11,7.00
2008,02,11,20,12,7.00
2008,02,11,20,13,7.10
2008,02,11,20,14,7.10
2008,02,11,20,15,7.00
2008,02,11,20,16,7.00
2008,02,11,20,17,7.00
2008,02,11,20,18,7.00
2008,02,11,20,19,7.00
2008,02,11,20,20,7.00
2008,02,11,20,21,7.00
2008,02,11,20,22,7.00
2008,02,11,20,23,7.00
2008,02,11,20,24,7.00
2008,02,11,20,25,6.90
2008,02,11,20,26,6.90
2008,02,11,20,27,6.90
2008,02,11,20,28,6.90
2008,02,11,20,29,6.90
2008,02,11,20,30,6.90
2008,02,11,20,31,6.90
2008,02,11,20,32,6.90
2008,02,11,20,33,6.90
2008,02,11,20,34,6.90
2008,02,11,20,35,6.90
2008,02,11,20,36,6.90
2008,02,11,20,37,6.90
2008,02,11,20,38,7.00
2008,02,11,20,39,7.00
2008,02,11,20,40,7.00
2008,02,11,20,41,7.00
2008,02,11,20,42,7.00
2008,02,11,20,43,7.00
2008,02,11,20,44,7.00
2008,02,11,20,45,7.00
2008,02,11,20,46,7.00
2008,02,11,20,47,7.00
2008,02,11,20,48,7.00
2008,02,11,20,49,7.00
2008,02,11,20,50,7.00
2008,02,11,20,51,7.00
2008,02,11,20,52,7.00
2008,02,11,20,53,7.00
2008,02,11,20,54,7.00
2008,02,11,20,55,6.90
2008,02,11,20,56,6.90
2008,02,11,20,57,6.90
2008,02,11,20,58,6.90
2008,02,11,20,59,6.90
2008,02,11,21,00,6.90
2008,02,11,21,01,6.90
2008,02,11,21,02,6.90
2008,02,11,21,03,6.90
2008,02,11,21,04,6.90
2008,02,11,21,05,6.90
2008,02,11,21,06,6.90
2008,02,11,21,07,6.90
2008,02,11,21,08,7.00
2008,02,11,21,09,7.00
2008,02,11,21,10,7.00
2008,02,11,21,11,7.00
2008,02,11,21,12,7.10
2008,02,11,21,13,7.10
2008,02,11,21,14,7.10
2008,02,11,21,15,7.10
2008,02,11,21,16,7.10
2008,02,11,21,17,7.10
2008,02,11,21,18,7.10
2008,02,11,21,19,7.10
2008,02,11,21,20,7.10
2008,02,11,21,21,7.20
2008,02,11,21,22,7.20
2008,02,11,21,23,7.20
2008,02,11,21,24,7.20
2008,02,11,21,25,7.20
2008,02,11,21,26,7.20
2008,02,11,21,27,7.20
2008,02,11,21,28,7.20
2008,02,11,21,29,7.20
2008,02,11,21,30,7.20
2008,02,11,21,31,7.20
2008,02,11,21,32,7.20
2008,02,11,21,33,7.20
2008,02,11,21,34,7.20
2008,02,11,21,35,7.20
2008,02,11,21,36,7.20
2008,02,11,21,37,7.20
2008,02,11,21,38,7.20
2008,02,11,21,39,7.20
2008,02,11,21,40,7.20
2008,02,11,21,41,7.20
2008,02,11,21,42,7.20
2008,02,11,21,43,7.10
2008,02,11,21,44,7.10
2008,02,11,21,45,7.10
2008,02,11,21,46,7.10
2008,02,11,21,47,7.10
2008,02,11,21,48,7.10
2008,02,11,21,49,7.10
2008,02,11,21,50,7.10
2008,02,11,21,51,7.10
2008,02,11,21,52,7.10
2008,02,11,21,53,7.10
2008,02,11,21,54,7.10
2008,02,11,21,55,7.10
2008,02,11,21,56,7.10
2008,02,11,21,57,7.10
2008,02,11,21,58,7.10
2008,02,11,21,59,7.10
2008,02,11,22,00,7.10
2008,02,11,22,01,7.10
2008,02,11,22,02,7.10
2008,02,11,22,03,7.10
2008,02,11,22,04,7.10
2008,02,11,22,05,7.10
2008,02,11,22,06,7.10
2008,02,11,22,07,7.20
2008,02,11,22,08,7.20
2008,02,11,22,09,7.20
2008,02,11,22,10,7.20
2008,02,11,22,11,7.20
2008,02,11,22,12,7.10
2008,02,11,22,13,7.10
2008,02,11,22,14,7.10
2008,02,11,22,15,7.10
2008,02,11,22,16,7.10
2008,02,11,22,17,7.10
2008,02,11,22,18,7.10
2008,02,11,22,19,7.10
2008,02,11,22,20,7.10
2008,02,11,22,21,7.20
2008,02,11,22,22,7.20
2008,02,11,22,23,7.20
2008,02,11,22,24,7.20
2008,02,11,22,25,7.20
2008,02,11,22,26,7.20
2008,02,11,22,27,7.20
2008,02,11,22,28,7.20
2008,02,11,22,29,7.20
2008,02,11,22,30,7.20
2008,02,11,22,31,7.20
2008,02,11,22,32,7.20
2008,02,11,22,33,7.20
2008,02,11,22,34,7.20
2008,02,11,22,35,7.20
2008,02,11,22,36,7.20
2008,02,11,22,37,7.20
2008,02,11,22,38,7.20
2008,02,11,22,39,7.20
2008,02,11,22,40,7.20
2008,02,11,22,41,7.20
2008,02,11,22,42,7.20
2008,02,11,22,43,7.20
2008,02,11,22,44,7.20
2008,02,11,22,45,7.20
2008,02,11,22,46,7.20
2008,02,11,22,47,7.20
2008,02,11,22,48,7.20
2008,02,11,22,49,7.20
2008,02,11,22,50,7.20
2008,02,11,22,51,7.20
2008,02,11,22,52,7.20
2008,02,11,22,53,7.20
2008,02,11,22,54,7.20
2008,02,11,22,55,7.20
2008,02,11,22,56,7.20
2008,02,11,22,57,7.20
2008,02,11,22,58,7.20
2008,02,11,22,59,7.20
2008,02,11,23,00,7.20
2008,02,11,23,01,7.20
2008,02,11,23,02,7.20
2008,02,11,23,03,7.20
2008,02,11,23,04,7.20
2008,02,11,23,05,7.20
2008,02,11,23,06,7.20
2008,02,11,23,07,7.20
2008,02,11,23,08,7.20
2008,02,11,23,09,7.20
2008,02,11,23,10,7.20
2008,02,11,23,11,7.20
2008,02,11,23,12,7.20
2008,02,11,23,13,7.20
2008,02,11,23,14,7.20
2008,02,11,23,15,7.20
2008,02,11,23,16,7.20
2008,02,11,23,17,7.20
2008,02,11,23,18,7.20
2008,02,11,23,19,7.20
2008,02,11,23,20,7.10
2008,02,11,23,21,7.10
2008,02,11,23,22,7.10
2008,02,11,23,23,7.10
2008,02,11,23,24,7.10
2008,02,11,23,25,7.10
2008,02,11,23,26,7.10
2008,02,11,23,27,7.10
2008,02,11,23,28,7.10
2008,02,11,23,29,7.10
2008,02,11,23,30,7.10
2008,02,11,23,31,7.10
2008,02,11,23,32,7.00
2008,02,11,23,33,7.00
2008,02,11,23,34,7.00
2008,02,11,23,35,7.00
2008,02,11,23,36,7.00
2008,02,11,23,37,7.00
2008,02,11,23,38,7.00
2008,02,11,23,39,7.00
2008,02,11,23,40,7.00
2008,02,11,23,41,7.00
2008,02,11,23,42,7.00
2008,02,11,23,43,6.90
2008,02,11,23,44,6.90
2008,02,11,23,45,6.90
2008,02,11,23,46,6.90
2008,02,11,23,47,6.90
2008,02,11,23,48,6.90
2008,02,11,23,49,6.90
2008,02,11,23,50,6.90
2008,02,11,23,51,6.90
2008,02,11,23,52,6.90
2008,02,11,23,53,6.90
2008,02,11,23,54,6.90
2008,02,11,23,55,6.90
2008,02,11,23,56,6.90
2008,02,11,23,57,6.90
2008,02,11,23,58,6.90
2008,02,11,23,59,6.90
